TimeEDT,TemperatureF,Dew PointF,Humidity,Sea Level PressureIn,VisibilityMPH,Wind Direction,Wind SpeedMPH,Gust SpeedMPH,PrecipitationIn,Events,Conditions,WindDirDegrees,DateUTC
12:15 AM,35.1,29.3,80,30.12,10.0,WSW,3.5,-,N/A,,Clear,240,2012-10-08 04:15:00
12:35 AM,35.2,29.3,79,30.11,10.0,WSW,3.5,-,N/A,,Clear,240,2012-10-08 04:35:00
12:55 AM,34.9,29.7,81,30.11,10.0,Calm,Calm,-,N/A,,Clear,0,2012-10-08 04:55:00
1:15 AM,32.9,29.3,87,30.11,10.0,Calm,Calm,-,N/A,,Clear,0,2012-10-08 05:15:00
1:35 AM,31.6,28.6,88,30.11,10.0,Calm,Calm,-,N/A,,Clear,0,2012-10-08 05:35:00
1:55 AM,31.1,29.1,92,30.11,10.0,Calm,Calm,-,N/A,,Clear,0,2012-10-08 05:55:00
2:15 AM,31.3,28.0,88,30.11,10.0,Calm,Calm,-,N/A,,Clear,0,2012-10-08 06:15:00
2:35 AM,29.3,27.1,92,30.11,10.0,Calm,Calm,-,N/A,,Clear,0,2012-10-08 06:35:00
2:55 AM,30.7,28.8,92,30.11,10.0,Calm,Calm,-,N/A,,Clear,0,2012-10-08 06:55:00
3:15 AM,30.0,27.5,90,30.11,10.0,Calm,Calm,-,N/A,,Clear,0,2012-10-08 07:15:00
3:35 AM,28.8,27.0,93,30.10,10.0,Calm,Calm,-,N/A,,Clear,0,2012-10-08 07:35:00
3:55 AM,28.2,26.4,93,30.10,10.0,Calm,Calm,-,N/A,,Clear,0,2012-10-08 07:55:00
4:15 AM,29.7,27.5,92,30.10,10.0,Calm,Calm,-,N/A,,Clear,0,2012-10-08 08:15:00
4:35 AM,32.2,28.4,86,30.10,10.0,Calm,Calm,-,N/A,,Clear,0,2012-10-08 08:35:00
4:55 AM,33.8,27.9,79,30.10,10.0,South,3.5,-,N/A,,Clear,180,2012-10-08 08:55:00
5:15 AM,33.8,28.0,79,30.10,10.0,South,4.6,-,N/A,,Clear,180,2012-10-08 09:15:00
5:35 AM,33.8,28.2,80,30.11,10.0,South,3.5,-,N/A,,Clear,180,2012-10-08 09:35:00
5:55 AM,33.4,28.4,82,30.10,10.0,South,3.5,-,N/A,,Clear,170,2012-10-08 09:55:00
6:15 AM,33.1,28.8,84,30.11,10.0,South,3.5,-,N/A,,Clear,170,2012-10-08 10:15:00
6:35 AM,33.1,28.8,84,30.11,10.0,South,4.6,-,N/A,,Clear,180,2012-10-08 10:35:00
6:55 AM,33.4,28.9,84,30.11,10.0,South,4.6,-,N/A,,Clear,180,2012-10-08 10:55:00
7:15 AM,33.1,28.9,85,30.11,10.0,SSE,3.5,-,N/A,,Clear,160,2012-10-08 11:15:00
7:35 AM,32.7,29.1,87,30.11,10.0,SSE,3.5,-,N/A,,Clear,160,2012-10-08 11:35:00
7:56 AM,32.5,29.3,88,30.12,10.0,South,4.6,-,N/A,,Clear,170,2012-10-08 11:56:00
8:15 AM,32.7,29.5,88,30.12,10.0,South,3.5,-,N/A,,Clear,170,2012-10-08 12:15:00
8:35 AM,34.2,30.2,85,30.13,10.0,South,5.8,-,N/A,,Clear,180,2012-10-08 12:35:00
8:55 AM,35.2,31.1,85,30.14,10.0,South,5.8,-,N/A,,Clear,180,2012-10-08 12:55:00
9:15 AM,36.7,31.5,81,30.14,10.0,South,5.8,-,N/A,,Clear,170,2012-10-08 13:15:00
9:35 AM,38.5,32.0,78,30.14,10.0,South,6.9,-,N/A,,Clear,190,2012-10-08 13:35:00
9:55 AM,40.1,32.0,73,30.14,10.0,SSW,5.8,-,N/A,,Clear,200,2012-10-08 13:55:00
10:15 AM,42.6,32.4,67,30.13,10.0,SSW,6.9,-,N/A,,Clear,200,2012-10-08 14:15:00
10:35 AM,44.6,32.5,63,30.13,10.0,SSW,11.5,-,N/A,,Clear,200,2012-10-08 14:35:00
10:55 AM,46.8,33.1,59,30.12,10.0,SSW,9.2,17.3,N/A,,Clear,210,2012-10-08 14:55:00
11:15 AM,48.6,33.3,56,30.12,10.0,SW,9.2,17.3,N/A,,Clear,220,2012-10-08 15:15:00
11:35 AM,49.5,32.4,52,30.12,10.0,SW,12.7,17.3,N/A,,Clear,220,2012-10-08 15:35:00
11:55 AM,50.7,32.0,49,30.12,10.0,SW,13.8,19.6,N/A,,Clear,220,2012-10-08 15:55:00
12:15 PM,51.6,31.8,47,30.11,10.0,SSW,13.8,18.4,N/A,,Clear,200,2012-10-08 16:15:00
12:35 PM,52.7,31.8,45,30.11,10.0,SSW,15.0,18.4,N/A,,Scattered Clouds,200,2012-10-08 16:35:00
12:55 PM,52.9,31.8,45,30.11,10.0,SW,13.8,17.3,N/A,,Scattered Clouds,230,2012-10-08 16:55:00
1:15 PM,53.2,30.9,43,30.10,10.0,SSW,11.5,17.3,N/A,,Scattered Clouds,200,2012-10-08 17:15:00
1:35 PM,54.5,30.2,39,30.09,10.0,SSW,16.1,23.0,N/A,,Scattered Clouds,210,2012-10-08 17:35:00
1:55 PM,52.3,29.7,42,30.09,10.0,SW,12.7,18.4,N/A,,Mostly Cloudy,220,2012-10-08 17:55:00
2:15 PM,52.7,29.5,41,30.08,10.0,SW,12.7,18.4,N/A,,Mostly Cloudy,230,2012-10-08 18:15:00
2:35 PM,54.9,29.5,38,30.07,10.0,SSW,16.1,20.7,N/A,,Mostly Cloudy,200,2012-10-08 18:35:00
2:55 PM,53.1,30.6,42,30.07,10.0,WSW,12.7,19.6,N/A,,Mostly Cloudy,240,2012-10-08 18:55:00
3:15 PM,53.6,29.7,40,30.07,10.0,SW,11.5,17.3,N/A,,Mostly Cloudy,220,2012-10-08 19:15:00
3:35 PM,55.2,29.3,37,30.06,10.0,SSW,10.4,-,N/A,,Mostly Cloudy,200,2012-10-08 19:35:00
3:55 PM,55.2,29.5,37,30.06,10.0,SW,10.4,16.1,N/A,,Scattered Clouds,220,2012-10-08 19:55:00
4:15 PM,55.6,28.6,36,30.05,10.0,WSW,18.4,21.9,N/A,,Scattered Clouds,240,2012-10-08 20:15:00
4:35 PM,54.5,27.1,35,30.05,10.0,SSW,8.1,18.4,N/A,,Scattered Clouds,210,2012-10-08 20:35:00
4:55 PM,55.2,26.6,33,30.03,10.0,SW,11.5,18.4,N/A,,Clear,220,2012-10-08 20:55:00
5:15 PM,54.3,24.6,32,30.04,10.0,SSW,11.5,19.6,N/A,,Clear,210,2012-10-08 21:15:00
5:35 PM,54.1,23.7,31,30.04,10.0,SSW,13.8,18.4,N/A,,Clear,210,2012-10-08 21:35:00
5:55 PM,53.8,23.7,31,30.03,10.0,SSW,9.2,-,N/A,,Clear,210,2012-10-08 21:55:00
6:15 PM,52.9,23.9,32,30.03,10.0,SSW,11.5,18.4,N/A,,Clear,210,2012-10-08 22:15:00
6:35 PM,52.2,24.3,34,30.03,10.0,SSW,6.9,-,N/A,,Clear,210,2012-10-08 22:35:00
6:55 PM,50.7,25.5,38,30.04,10.0,South,5.8,-,N/A,,Clear,180,2012-10-08 22:55:00
7:15 PM,49.5,26.1,40,30.04,10.0,South,5.8,-,N/A,,Clear,170,2012-10-08 23:15:00
7:35 PM,48.4,26.4,42,30.04,10.0,South,5.8,-,N/A,,Clear,180,2012-10-08 23:35:00
7:55 PM,47.3,26.8,45,30.04,10.0,South,4.6,-,N/A,,Clear,170,2012-10-08 23:55:00
8:16 PM,46.4,27.1,47,30.04,10.0,South,4.6,-,N/A,,Clear,170,2012-10-09 00:16:00
8:35 PM,45.5,27.3,49,30.04,10.0,South,5.8,-,N/A,,Clear,170,2012-10-09 00:35:00
8:55 PM,45.1,27.3,50,30.04,10.0,South,3.5,-,N/A,,Clear,170,2012-10-09 00:55:00
9:15 PM,45.0,28.0,52,30.05,10.0,South,5.8,-,N/A,,Clear,170,2012-10-09 01:15:00
9:35 PM,44.4,28.2,53,30.05,10.0,SSE,5.8,-,N/A,,Clear,160,2012-10-09 01:35:00
9:55 PM,44.6,28.4,53,30.04,10.0,SSE,4.6,-,N/A,,Clear,160,2012-10-09 01:55:00
10:15 PM,44.6,28.6,53,30.04,10.0,SSE,5.8,-,N/A,,Clear,160,2012-10-09 02:15:00
10:35 PM,45.0,28.6,53,30.05,10.0,South,5.8,-,N/A,,Clear,170,2012-10-09 02:35:00
10:55 PM,45.0,28.8,53,30.04,10.0,SSE,6.9,-,N/A,,Clear,160,2012-10-09 02:55:00
11:15 PM,45.0,28.4,52,30.03,10.0,South,9.2,-,N/A,,Clear,170,2012-10-09 03:15:00
11:55 PM,45.5,28.2,51,30.03,10.0,South,6.9,-,N/A,,Clear,180,2012-10-09 03:55:00